User: anonymous   Login
Location: Christianberg
(48.9086°N, 14.0209°E)
Time: 07:16:00
(UTC+00:00)
Language:

CZ-3B R/B - Orbit

View from above orbital plane
View from above orbital plane
View from above satellite
View from above satellite

Ground track
Ground track

The orbit data is extracted from the following two-line orbital elements,

1 43649U 18078C   21264.11930963  .00000687  00000-0  29894-3 0  9993
2 43649  54.8728 134.6778 5573492 163.2378 227.4089  4.62725254 48969
Epoch (UTC): 21 September 2021 02:51:48
Eccentricity: 0.5573492
inclination: 54.8728°
perigee height: 355 km
apogee height: 17312 km
right ascension of ascending node: 134.6778°
argument of perigee: 163.2378°
revolutions per day: 4.62725254
mean anomaly at epoch: 227.4089°
orbit number at epoch: 4896

The dashed part of the orbit path shows where the satellite is in the earth's shadow,  

DLR